Location: Azul
(36.7830°S, 59.8500°W)
Time: 19:17:51
(UTC-03:00)

ISS - Pass Details

Date: 09 August 2020
Orbit: 418 x 420 km, 51.6° (Epoch: 08 August)

Event Time Altitude Azimuth Distance (km) Brightness Sun altitude
Exits shadow 06:57:27 13° 228° (SW) 1,351 -1.7 -10.8°
Maximum altitude 07:00:27 87° 144° (SE) 431 -3.7 -10.2°
Drops below altitude 10° 07:03:51 10° 49° (NE) 1,507 0.1 -9.5°
Sets 07:05:56 0° 49° (NE) 2,364 1.3 -9.1°
